{"data":{"norad_id":57977,"intl_designator":"2023-151P","name":"STARLINK-30509","alt_names":[],"object_type":"PAYLOAD","status":"ACTIVE","operator":null,"country":"US","launch_date":"2023-09-30","launch_site_code":"AFETR","launch_vehicle":null,"mission":null,"orbit_class":"UNKNOWN","rcs_meters":null,"size_class":null,"mass_kg":null,"dimensions":null,"purposes":["comms"],"wikipedia_slug":null,"has_3d_model":false,"image_url":null,"decayed_at":null,"tle_current":{"epoch":"2026-05-25T01:28:41.903904Z","epoch_age_seconds":65799,"freshness":"FRESH","line1":"1 57977U 23151P   26145.06159611  .00000726  00000+0  35907-4 0  9996","line2":"2 57977  42.9971 279.3671 0001259 267.2223  92.8485 15.27575254147275","mean_motion":15.27575254,"eccentricity":0.0001259,"inclination_deg":42.9971,"raan_deg":279.3671,"arg_perigee_deg":267.2223,"mean_anomaly_deg":92.8485,"bstar":3.5907e-5,"rev_number":14727,"period_min":94.26704158956,"perigee_km":482.19948218912,"apogee_km":483.9271324265,"semimajor_km":6861.2003073078,"source":"CELESTRAK","updated_at":"2026-05-25T13:38:18.487553Z"}}}